Weather History for Pope Field Airport, NC

Change the Weather History Date:

Saturday, July 6, 2013

  Actual Average Record
Temperature  
Mean Temperature 79 °F -  
Max Temperature 88 °F 89 °F 99 °F (1993)
Min Temperature 70 °F 70 °F 55 °F (1979)
Cooling Degree Days 14    
Growing Degree Days 29 (Base 50)    
Moisture  
Dew Point 72 °F    
Average Humidity 82    
Maximum Humidity 100    
Minimum Humidity 53    
Precipitation  
Precipitation 0.02 in - - ()
Sea Level Pressure  
Sea Level Pressure 30.22 in    
Wind  
Wind Speed 4 mph (SSE)    
Max Wind Speed 10 mph    
Max Gust Speed -    
Visibility 8 miles    
Events Fog , Rain    
Averages and records for this station are not official NWS values.
T = Trace of Precipitation, MM = Missing Value Source: NWS Daily Summary

Daily Weather History Graph

Daily Weather History Graph

Search for Another Location

Airport:

Trip Planner

Search our weather history database for the weather conditions in past years. The results will help you decide how hot, cold, wet, or windy it might be!

Date:

Astronomy

Jul. 06, 2013 Rise Set
Actual Time 6:07 AM EDT 8:33 PM EDT
Civil Twilight 5:38 AM EDT 9:03 PM EDT
Nautical Twilight 5:01 AM EDT 9:39 PM EDT
Astronomical Twilight 4:21 AM EDT 10:19 PM EDT
Moon 4:50 AM EDT (7/6) 7:16 PM EDT (7/6)
Length of Visible Light 15h 24m
Length of Day
14h 25m
Waning Crescent, 2% of the Moon is Illuminated
Jul 6
Waning Crescent
Jul 8
New
Jul 15
First Quarter
Jul 22
Full
Jul 29
Last Quarter

Hourly Weather History & Observations

Time (EDT) Temp. Heat Index Dew Point Humidity Pressure Visibility Wind Dir Wind Speed Gust Speed Precip Events Conditions
12:58 AM 77.0 °F - 73.0 °F 88% 30.25 in 10.0 mi South 2.3 mph - N/A   Clear
1:58 AM 76.3 °F - 73.2 °F 90% 30.23 in 10.0 mi SSW 4.6 mph - N/A   Clear
2:58 AM 75.6 °F - 72.9 °F 91% 30.22 in 10.0 mi South 5.8 mph - N/A   Clear
3:58 AM 74.8 °F - 72.5 °F 92% 30.22 in 10.0 mi WSW 4.6 mph - N/A   Clear
4:58 AM 74.1 °F - 72.1 °F 94% 30.22 in 10.0 mi Calm Calm - N/A   Clear
5:54 AM 71.6 °F - 69.8 °F 94% 30.23 in 10.0 mi NE 4.6 mph - N/A   Partly Cloudy
5:58 AM 70.7 °F - 70.2 °F 98% 30.24 in 10.0 mi NE 4.6 mph - N/A   Partly Cloudy
6:08 AM 71.6 °F - 69.8 °F 94% 30.23 in 10.0 mi NE 4.6 mph - N/A   Mostly Cloudy
6:28 AM 71.6 °F - 69.8 °F 94% 30.24 in 2.5 mi ENE 3.5 mph - N/A   Overcast
6:33 AM 71.6 °F - 69.8 °F 94% 30.24 in 0.8 mi NE 2.3 mph - N/A   Mist
6:38 AM 71.6 °F - 69.8 °F 94% 30.24 in 0.5 mi NE 3.5 mph - N/A Fog Fog
6:53 AM 71.6 °F - 71.6 °F 100% 30.24 in 0.2 mi ENE 3.5 mph - N/A Fog Fog
6:58 AM 71.6 °F - 71.6 °F 100% 30.25 in 0.2 mi NE 3.5 mph - N/A Fog Fog
7:58 AM 72.1 °F - 72.0 °F 99% 30.27 in 0.5 mi ENE 2.3 mph - N/A Fog Fog
8:03 AM 73.4 °F - 71.6 °F 94% 30.26 in 0.5 mi ENE 2.3 mph - N/A Fog Fog
8:13 AM 73.4 °F - 73.4 °F 100% 30.26 in 0.8 mi NE 2.3 mph - N/A   Mist
8:18 AM 73.4 °F - 73.4 °F 100% 30.26 in 1.2 mi NNE 3.5 mph - N/A   Overcast
8:23 AM 73.4 °F - 73.4 °F 100% 30.26 in 2.5 mi NNE 3.5 mph - N/A   Overcast
8:28 AM 73.4 °F - 73.4 °F 100% 30.26 in 4.0 mi NNE 4.6 mph - N/A   Overcast
8:43 AM 75.2 °F - 75.2 °F 100% 30.26 in 8.0 mi Variable 2.3 mph - N/A   Mostly Cloudy
8:46 AM 77.0 °F - 75.2 °F 94% 30.26 in 6.0 mi ENE 2.3 mph - N/A Rain Light Rain
8:58 AM 76.3 °F - 74.5 °F 94% 30.27 in 10.0 mi Calm Calm - 0.00 in   Light Drizzle
9:15 AM 78.8 °F - 73.4 °F 83% 30.26 in 10.0 mi West 3.5 mph - N/A   Mostly Cloudy
9:58 AM 80.8 °F 85.1 °F 72.1 °F 75% 30.26 in 10.0 mi WSW 5.8 mph - 0.00 in   Partly Cloudy
10:50 AM 82.4 °F 87.2 °F 71.6 °F 70% 30.25 in 10.0 mi SSW 6.9 mph - N/A   Light Drizzle
10:58 AM 82.6 °F 87.8 °F 72.3 °F 71% 30.26 in 10.0 mi SW 5.8 mph - 0.00 in   Light Drizzle
10:59 AM 82.4 °F 87.2 °F 71.6 °F 70% 30.25 in 10.0 mi SW 5.8 mph - N/A   Partly Cloudy
11:58 AM 85.3 °F 90.8 °F 71.6 °F 63% 30.25 in 10.0 mi SW 8.1 mph - 0.00 in   Scattered Clouds
12:58 PM 86.5 °F 92.1 °F 71.2 °F 60% 30.24 in 10.0 mi Variable 4.6 mph - N/A   Partly Cloudy
1:58 PM 87.6 °F 92.7 °F 70.0 °F 56% 30.20 in 10.0 mi SE 6.9 mph - N/A   Scattered Clouds
2:58 PM 88.9 °F 93.8 °F 69.6 °F 53% 30.19 in 10.0 mi SSE 8.1 mph - N/A   Partly Cloudy
3:58 PM 87.6 °F 93.1 °F 70.9 °F 57% 30.17 in 10.0 mi SE 10.4 mph - N/A   Partly Cloudy
4:58 PM 87.4 °F 92.7 °F 70.7 °F 57% 30.16 in 10.0 mi South 9.2 mph - N/A   Partly Cloudy
5:32 PM 84.2 °F 90.9 °F 73.4 °F 70% 30.14 in 10.0 mi Variable 5.8 mph - N/A Rain Light Rain
5:58 PM 81.1 °F 86.6 °F 73.9 °F 79% 30.14 in 9.0 mi South 4.6 mph - 0.02 in Rain Light Rain
6:01 PM 80.6 °F 85.4 °F 73.4 °F 79% 30.14 in 10.0 mi South 4.6 mph - N/A   Mostly Cloudy
6:58 PM 84.0 °F 89.3 °F 71.6 °F 66% 30.14 in 10.0 mi South 8.1 mph - 0.00 in   Partly Cloudy
7:58 PM 83.5 °F 87.4 °F 69.6 °F 63% 30.17 in 10.0 mi South 8.1 mph - N/A   Clear
8:58 PM 81.3 °F 84.3 °F 68.4 °F 65% 30.18 in 9.0 mi SSW 8.1 mph - N/A   Clear
9:58 PM 79.7 °F - 68.9 °F 69% 30.19 in 10.0 mi SSW 5.8 mph - N/A   Clear
10:58 PM 78.4 °F - 69.4 °F 74% 30.21 in 10.0 mi SSW 5.8 mph - N/A   Clear
11:58 PM 77.2 °F - 70.2 °F 79% 30.20 in 10.0 mi SW 5.8 mph - N/A   Clear